FW7892 Weather Reports


Display with metric or nautical units.
time (UTC)temp
F
wind
direction
speed
MPH
gust
MPH
rain 1hr
in
rain 24hr
in
rain mn
in
humidity
%
barometer
mb
20260508091213 69 313 0.0 0.0 0.00 0.00 0.00 99 1012.4
20260508090212 70 313 0.0 0.0 0.00 0.00 0.00 99 1012.5
20260508085213 70 312 0.0 1.0 0.00 0.00 0.00 98 1012.5
20260508084212 70 292 0.0 1.0 0.00 0.00 0.00 98 1012.6
20260508083205 70 255 0.0 1.0 0.00 0.00 0.00 98 1012.6
20260508081203 72 244 0.0 1.0 0.00 0.00 0.00 98 1013.0
20260508070207 71 243 0.0 0.0 0.00 0.00 0.00 97 1013.0
20260508064203 70 315 0.0 0.0 0.00 0.00 0.00 97 1013.6
20260508062205 70 294 0.0 1.0 0.00 0.00 0.00 97 1013.6
20260508060216 70 247 0.0 1.0 0.00 0.00 0.00 96 1013.7
20260508054207 71 212 0.0 1.0 0.00 0.00 0.00 96 1014.1
20260508052209 70 214 0.0 2.0 0.00 0.00 0.00 95 1014.3
20260508051213 71 242 0.0 2.0 0.00 0.00 0.00 95 1014.4
20260508050211 71 245 0.0 2.0 0.00 0.00 0.00 95 1014.5
20260508043211 72 233 0.0 1.0 0.00 0.00 0.00 94 1015.0
20260508042209 72 239 0.0 1.0 0.00 0.00 0.00 88 1015.1
20260508034209 74 265 0.0 1.0 0.00 0.00 0.00 92 1015.4
20260508032213 75 242 1.0 3.0 0.00 0.00 0.00 90 1015.3
20260508030207 75 241 1.0 3.0 0.00 0.00 0.00 88 1015.1
20260508025215 75 243 1.0 3.0 0.00 0.00 0.00 87 1015.1
20260508023213 76 248 1.0 2.0 0.00 0.00 0.00 85 1015.1
20260508015213 77 330 0.0 1.0 0.00 0.00 0.00 64 1015.1
20260508014210 79 253 0.0 1.0 0.00 0.00 0.00 69 1015.0
20260508013205 79 270 0.0 2.0 0.00 0.00 0.00 74 1015.0
20260508012211 79 315 1.0 3.0 0.00 0.00 0.00 72 1014.9
20260508011209 80 314 2.0 5.0 0.00 0.00 0.00 71 1014.9
20260508002205 83 312 5.0 10.0 0.00 0.00 0.00 63 1014.7
20260508001205 84 312 5.0 10.0 0.00 0.00 0.00 61 1014.7
20260507235205 85 257 5.0 13.0 0.00 0.00 0.00 57 1014.7
20260507234212 86 265 5.0 13.0 0.00 0.00 0.00 46 1014.6
20260507232214 88 197 4.0 9.0 0.00 0.00 0.00 50 1014.4
20260507231210 87 164 6.0 9.0 0.00 0.00 0.00 51 1014.5
20260507225205 87 184 5.0 9.0 0.00 0.00 0.00 52 1014.5
20260507222205 88 184 5.0 8.0 0.00 0.00 0.00 44 1014.3
20260507220206 89 190 3.0 7.0 0.00 0.00 0.00 45 1014.3
20260507215206 89 223 3.0 9.0 0.00 0.00 0.00 44 1014.2
20260507213212 89 203 3.0 7.0 0.00 0.00 0.00 43 1014.4
20260507211209 91 210 5.0 10.0 0.00 0.00 0.00 54 1014.3
20260507204214 89 189 3.0 10.0 0.00 0.00 0.00 45 1014.4
20260507193212 87 194 3.0 9.0 0.00 0.00 0.00 65 1015.2
20260507192213 87 188 3.0 9.0 0.00 0.00 0.00 60 1015.2
20260507191208 87 212 4.0 8.0 0.00 0.00 0.00 61 1015.5
20260507190208 87 195 5.0 9.0 0.00 0.00 0.00 61 1015.4
20260507185212 86 203 3.0 9.0 0.00 0.00 0.00 63 1015.7
20260507183204 86 170 3.0 8.0 0.00 0.00 0.00 66 1015.7
20260507182208 86 151 3.0 6.0 0.00 0.00 0.00 67 1015.4
20260507181215 86 95 1.0 6.0 0.00 0.00 0.00 66 1014.9
20260507180208 86 70 1.0 2.0 0.00 0.00 0.00 67 1015.4
20260507172207 85 41 0.0 1.0 0.00 0.00 0.00 89 1015.2
20260507171208 85 143 0.0 1.0 0.00 0.00 0.00 68 1015.5
20260507170206 85 72 1.0 1.0 0.00 0.00 0.00 68 1015.1
20260507165207 84 82 1.0 1.0 0.00 0.00 0.00 68 1015.4
20260507163212 67 54 1.0 1.0 0.00 0.00 0.00 89 1015.6
20260507162211 84 55 1.0 2.0 0.00 0.00 0.00 97 1015.6
20260507161214 84 56 1.0 2.0 0.00 0.00 0.00 80 1015.8
20260507160209 83 38 1.0 2.0 0.00 0.00 0.00 68 1016.2
20260507155211 83 34 1.0 2.0 0.00 0.00 0.00 70 1015.7
20260507154207 83 105 0.0 2.0 0.00 0.00 0.00 72 1015.9
20260507151204 82 136 1.0 2.0 0.00 0.00 0.00 75 1016.3
20260507150207 81 127 1.0 2.0 0.00 0.00 0.00 75 1016.1
20260507145206 82 121 1.0 1.0 0.00 0.00 0.00 76 1016.5
20260507142208 75 106 0.0 1.0 0.00 0.00 0.00 78 1016.1
20260507134214 79 44 0.0 1.0 0.00 0.00 0.00 81 1015.9
20260507133210 79 2 0.0 1.0 0.00 0.00 0.00 83 1015.9
20260507131205 77 320 0.0 1.0 0.00 0.00 0.00 87 1015.6
20260507130213 76 307 0.0 1.0 0.00 0.00 0.00 89 1015.7
20260507125204 76 308 0.0 2.0 0.00 0.00 0.00 90 1015.5
20260507124215 75 308 0.0 2.0 0.00 0.00 0.00 92 1015.2
20260507123206 73 308 0.0 2.0 0.00 0.00 0.00 94 1014.8
20260507121211 71 0 0.0 1.0 0.00 0.00 0.00 97 1013.9
20260507120205 71 0 0.0 1.0 0.00 0.00 0.00 98 1013.7
20260507114208 69 0 0.0 0.0 0.00 0.00 0.00 98 1014.4
20260507113210 69 0 0.0 0.0 0.00 0.00 0.00 98 1014.7
20260507112212 67 274 0.0 0.0 0.00 0.00 0.00 98 1014.4
20260507110208 66 282 0.0 1.0 0.00 0.00 0.00 90 1014.8
20260507101212 69 323 0.0 1.0 0.00 0.00 0.00 97 1015.1
20260507100212 67 324 0.0 1.0 0.00 0.00 0.00 97 1014.9
20260507095212 66 308 0.0 1.0 0.00 0.00 0.00 97 1014.4
20260507093205 68 309 0.0 0.0 0.00 0.00 0.00 72 1014.2